Home > Weather > Chattanooga > Past weeks

Flag for USA Past Weather in Chattanooga, Tennessee, USA — Yesterday and Last 2 Weeks

Now
84 °F

Broken clouds.


Feels Like: 84 °F
Forecast: 67 / 89 °F
Wind: No wind

Location: Lovell Field

Current Time: May 31, 2016 at 12:21:51 PM

Latest Report: May 31, 2016 at 11:53 AM


Visibility: 10 mi

Pressure: 29.96 "Hg

Humidity: 46%

Dew Point: 61 °F

Location of ChattanoogaLocation

Past Weather in Chattanooga — Graph

°F

Chattanooga Temperature Yesterday

Maximum temperature yesterday: 91 °F (at 4:53 PM)
Minimum temperature yesterday: 69 °F (at 4:53 AM)
Average temperature yesterday: 79 °F

High & Low Weather Summary for the Past Weeks

 TemperatureHumidityPressure
High91 °F (May 30, 4:53 PM)94% (May 20, 7:53 PM)30.23 "Hg (May 20, 7:53 PM)
Low55 °F (May 23, 5:53 AM)24% (May 23, 5:53 PM)29.90 "Hg (May 30, 6:53 PM)
Average73 °F61%30.04 "Hg
* Reported May 16 10:53 AM — May 31 10:53 AM, Chattanooga, Weather by CustomWeather, © 2016

Note: Actual official high and low records may vary slightly from our data, if they occured in-between our weather recording intervals... More about our weather records

Advertising

Chattanooga Weather History for the Previous 24 Hours

Scroll right to see more
 ConditionsComfort  
Time TempWeatherWind HumidityBarometerVisibility
10:53 AM
Tue, May 31
83 °FBroken clouds.6 mph51%29.97 "Hg10 mi
9:53 AM78 °FBroken clouds.3 mph60%29.97 "Hg10 mi
8:53 AM72 °FBroken clouds.No wind73%29.98 "Hg10 mi
7:53 AM67 °FBroken clouds.No wind87%29.96 "Hg10 mi
6:53 AM66 °FPartly cloudy.No wind90%29.95 "Hg10 mi
5:53 AM66 °FPassing clouds.No wind84%29.92 "Hg10 mi
4:53 AM66 °FClear.No wind81%29.91 "Hg10 mi
3:53 AM68 °FClear.No wind78%29.91 "Hg10 mi
2:53 AM68 °FClear.No wind78%29.92 "Hg10 mi
1:53 AM70 °FClear.No wind76%29.93 "Hg10 mi
12:53 AM69 °FClear.3 mph79%29.94 "Hg10 mi
11:53 PM
Mon, May 30
73 °FPassing clouds.No wind66%29.95 "Hg10 mi
10:53 PM76 °FPassing clouds.No wind58%29.95 "Hg10 mi
9:53 PM78 °FPassing clouds.No wind56%29.93 "Hg10 mi
8:53 PM82 °FScattered clouds.No wind49%29.91 "Hg10 mi
7:53 PM86 °FScattered clouds.8 mph42%29.91 "Hg10 mi
6:53 PM87 °FScattered clouds.5 mph43%29.90 "Hg10 mi
5:53 PM89 °FScattered clouds.9 mph38%29.91 "Hg10 mi
4:53 PM91 °FScattered clouds.6 mph34%29.92 "Hg10 mi
3:53 PM85 °FLight rain. Broken clouds.5 mph50%29.93 "Hg10 mi
2:53 PM88 °FBroken clouds.6 mph36%29.95 "Hg10 mi
1:53 PM89 °FBroken clouds.6 mph39%29.96 "Hg10 mi
12:53 PM88 °FBroken clouds.5 mph42%29.98 "Hg10 mi
Weather by CustomWeather, © 2016

See weather overviewHow to use our weather pages